This demonstration page uses our WeatherBlox Daily Observations layout. Learn more.

Left ArrowRight Arrow

39.95238, -75.16362

Hourly Observations for May 10, 2018

Temp ( °F °C ) Dew Point ( °F °C ) Humidity (%) Winds ( mph kmh ) Pressure ( in mb ) Visibility ( mi km ) Precip ( " mm )
1:54 am 01:54 Clear 55 12.8 47 8.3 74 74 SSE 3 6 30.07 1018 10 16 0.00 0.00
2:54 am 02:54 Clear 54 12.2 48 8.9 80 80 Calm 30.06 1018 10 16 0.00 0.00
3:54 am 03:54 Clear 51 10.6 46 7.8 83 83 SE 3 6 30.05 1018 10 16 0.00 0.00
4:54 am 04:54 Clear 51 10.6 47 8.3 86 86 SSE 3 6 30.03 1017 10 16 0.00 0.00
5:54 am 05:54 Partly Cloudy 50 10 48 8.9 93 93 Calm 30.03 1017 10 16 0.00 0.00
6:15 am 06:15 Partly Cloudy 50 10 48 8.9 93 93 SE 5 7 30.03 1017 8 13 0.00 0.00
6:23 am 06:23 Partly Cloudy 50 10 49 9.4 96 96 Calm 30.03 1017 7 11 0.00 0.00
6:51 am 06:51 Mostly Cloudy with Mist and Fog 52 11 48 9 88 88 S 6 9 30.03 1017 3 5 0.00 0.00
6:54 am 06:54 Cloudy with Mist and Fog 51 10.6 49 9.4 92 92 SSW 6 9 30.04 1017 3 5 0.00 0.00
7:02 am 07:02 Cloudy with Mist and Fog 51 10.6 49 9.4 92 92 S 6 9 30.03 1017 3 5 0.00 0.00
7:34 am 07:34 Cloudy with Mist and Fog 51 10.6 49 9.4 92 92 S 7 11 30.03 1017 3 5 0.00 0.00
7:50 am 07:50 Cloudy with Mist and Fog 52 11 50 10 94 94 SSE 6 9 30.03 1017 3 4 0.00 0.00
7:54 am 07:54 Cloudy with Mist and Fog 52 11.1 50 10 93 93 SSE 6 9 30.03 1017 3 4 0.00 0.00
8:43 am 08:43 Cloudy with Mist and Fog 54 12.2 52 11.1 93 93 SSE 6 9 30.00 1016 3 5 0.00 0.00
8:54 am 08:54 Cloudy with Mist and Fog 55 12.8 52 11.1 90 90 S 6 9 30.00 1016 3 5 0.00 0.00
9:17 am 09:17 Cloudy 57 13.9 54 12.2 90 90 S 6 9 30.00 1016 10 16 0.00 0.00
9:33 am 09:33 Mostly Cloudy 59 15 54 12.2 83 83 SSE 6 9 30.00 1016 10 16 0.00 0.00
9:45 am 09:45 Mostly Cloudy 61 16.1 55 12.8 81 81 S 5 7 29.97 1015 10 16 0.00 0.00
9:54 am 09:54 Mostly Cloudy 63 17.2 55 12.8 76 76 S 5 7 29.98 1015 10 16 0.00 0.00
10:54 am 10:54 Mostly Cloudy 69 20.6 53 11.7 57 57 SSW 10 17 29.97 1015 10 16 0.00 0.00
11:54 am 11:54 Cloudy with Light Rain 68 20 56 13.3 65 65 S 10 17 29.95 1014 10 16 0.00 0.03
12:54 pm 12:54 Mostly Cloudy 69 20.6 57 13.9 66 66 SSE 8 13 29.90 1013 10 16 0.00 0.03
1:54 pm 13:54 Cloudy 72 22.2 58 14.4 61 61 S 8 13 29.88 1012 10 16 0.00 0.03
2:54 pm 14:54 Mostly Cloudy 76 24.4 59 15 56 56 SW 13 20 29.85 1011 10 16 0.00 0.00
3:54 pm 15:54 Mostly Cloudy 77 25 60 15.6 56 56 SSW 14 22 29.82 1010 10 16 0.00 0.00
4:54 pm 16:54 Mostly Cloudy 80 26.7 58 14.4 47 47 SW 15 24 29.80 1009 10 16 0.00 0.00
5:54 pm 17:54 Mostly Cloudy 79 26.1 60 15.6 52 52 SW 12 19 29.79 1009 10 16 0.00 0.00
6:54 pm 18:54 Mostly Cloudy 78 25.6 60 15.6 54 54 SW 9 15 29.78 1009 10 16 0.00 0.00
7:38 pm 19:38 Cloudy with Thunderstorms 77 25 60 15.6 56 56 SW 7 11 29.80 1009 10 16 0.00 0.00
7:54 pm 19:54 Cloudy with Thunderstorms 76 24.4 61 16.1 60 60 WSW 13 20 29.80 1009 10 16 0.00 0.03
8:00 pm 20:00 Cloudy with Light Rain 76 24.4 61 16.1 60 60 SW 10 17 29.80 1009 10 16 0.00 0.03
8:11 pm 20:11 Cloudy with Thunderstorms 75 23.9 61 16.1 62 62 SW 8 13 29.80 1009 10 16 0.00 0.03
8:54 pm 20:54 Cloudy with Thunderstorms 73 22.8 55 12.8 53 53 W 16 26 29.81 1010 10 16 0.00 0.03
9:54 pm 21:54 Mostly Cloudy with Thunderstorms 70 21.1 58 14.4 66 66 SW 15 24 29.83 1010 10 16 0.00 0.03
10:15 pm 22:15 Mostly Cloudy 70 21.1 57 13.9 64 64 W 10 17 29.83 1010 10 16 0.00 0.00
10:54 pm 22:54 Mostly Cloudy 70 21.1 58 14.4 66 66 SW 12 19 29.84 1011 10 16 0.00 0.00
11:54 pm 23:54 Mostly Clear 68 20 60 15.6 76 76 WNW 8 13 29.85 1011 10 16 0.00 0.00

Powered by AerisWeather